[[{"header":{"parameterUnit":"m.s-1","parameterCategory":1,"la1":30.2991,"la2":30.254,"lo1":-89.0895,"lo2":-89.0444,"dy":0.0017,"dx":0.0017,"nx":28,"ny":28,"refTime":"2026-01-01T03:00:00:Z","depth":0,"parameterNumber":2,"parameterNumberName":"U-component_of_WINDS"},"data":[0,0,0,0,0,0,0,0,0,0,0,0,0,0,0,0,0,0,0,0,0,0,0,0,0,0,0,0,0,0,0,0,0,0,0,0,0,0,0,0,0,0,0,0,0,0,0,0,0,0,0,0,0,0,0,0,0,0,4.8305,4.8308,0,4.8585,4.8589,4.8592,4.8587,4.8584,4.858,4.8576,4.8866,4.8877,4.8888,0,0,0,0,0,0,0,0,0,0,0,0,0,4.7767,4.7776,4.8305,4.8308,4.8312,4.8585,4.8589,4.8593,4.8588,4.8583,4.8579,4.8574,4.8863,4.8876,4.8889,0,0,0,0,0,0,0,0,0,0,0,0,0,4.8019,4.778,4.8304,4.8342,4.8348,4.8584,4.8589,4.8594,4.8589,4.8583,4.8578,4.8572,4.8858,4.8875,4.8891,4.9108,0,0,4.8943,4.895,0,0,0,0,0,0,0,0,4.8005,4.8039,4.8333,4.834,4.8347,4.8545,4.8505,4.8766,4.859,4.8498,4.8576,4.857,4.8764,4.8789,4.8854,4.9122,4.9134,4.8944,4.8954,4.8962,4.8966,0,0,0,0,0,0,0,4.7987,4.8027,4.8416,4.8337,4.8346,4.8346,4.8376,4.8555,4.8659,4.8505,4.8506,4.8539,4.8767,4.8837,4.886,4.9138,4.8944,4.8959,4.8969,4.8976,4.9597,4.9603,0,0,0,0,0,0,4.7962,4.8012,4.8407,4.8424,4.8159,4.836,4.8393,4.8488,4.8657,4.8678,4.8543,4.8538,4.8811,4.8841,4.8871,4.9134,4.8961,4.8977,4.8987,4.959,4.9598,4.9605,0,0,0,0,0,0,4.795,4.7997,4.8396,4.8219,4.8269,4.8375,4.8481,4.8496,4.8566,4.8686,4.8705,4.8596,4.8808,4.8847,4.9048,4.9144,4.8985,4.9,4.9583,4.9593,4.9602,4.9663,0,0,0,0,0,0,4.7935,4.7993,4.8076,4.822,4.8279,4.8569,4.8487,4.8506,4.8595,4.859,4.874,4.876,4.8807,4.9023,4.9065,4.9164,4.9013,4.9575,4.9587,4.9599,4.9653,4.9674,4.9692,0,0,0,0,0,4.7915,4.8083,4.808,4.8128,4.8385,4.8574,4.8607,4.8657,4.8603,4.8687,4.8764,4.8755,4.9127,4.9044,4.9091,4.9197,4.9569,4.9584,4.9598,4.9645,4.967,4.9691,0,0,0,0,0,0,4.7949,4.8103,4.8101,4.8321,4.8434,4.8573,4.8681,4.8683,4.8815,4.8805,4.8862,4.8896,4.9097,4.9167,4.9072,4.9415,4.9341,4.9366,4.9361,4.9386,4.9405,4.9383,4.9027,0,0,0,0,0,4.7981,4.8121,4.8249,4.843,4.8487,4.8574,4.8659,4.8687,4.8807,4.8855,4.8947,4.9065,4.9208,4.9301,4.944,4.9664,4.9696,4.976,4.9779,4.9794,4.9814,4.9936,4.9965,4.9652,4.9652,4.9652,0,0,4.8051,4.8152,4.8238,4.844,4.8531,4.8674,4.8615,4.877,4.8877,4.888,4.9074,4.9146,4.9281,4.9494,4.9592,4.9559,4.9908,4.9812,4.9823,4.9836,4.9954,4.9983,5.0009,4.9662,4.966,4.9659,0,0,4.825,4.8342,4.8502,4.8594,4.8732,4.8789,4.8827,4.8966,4.9013,4.9209,4.9213,4.9342,4.9588,4.9683,4.9764,4.9998,4.9994,5.0042,5.0141,5.0259,5.0284,5.0306,5.0388,5.0417,5.0062,5.0062,5.0062,0,4.8319,4.8535,4.8584,4.874,4.8828,4.8835,4.8997,4.9085,4.9262,4.9322,4.9282,4.959,4.9681,4.9916,4.9972,5.0039,5.0083,5.0024,5.0276,5.0299,5.032,5.0399,5.043,5.0067,5.0066,5.0066,5.0065,0,4.8612,4.8762,4.8875,4.9043,4.9145,4.9303,4.9376,4.9472,4.9492,4.9553,4.9752,4.9862,5.0022,5.008,5.0102,5.0318,5.0292,5.0264,5.0191,5.0354,5.0429,5.0459,5.0073,5.0072,5.007,5.0069,0,0,4.884,4.9033,4.9073,4.9149,4.9301,4.9419,4.9577,4.9732,4.9813,4.9935,5.0068,5.0275,5.0249,5.0341,5.0373,5.0477,5.0653,5.0436,5.044,5.0471,5.0896,5.0914,5.0949,5.0651,5.0657,5.0662,5.0884,0,4.9054,4.9334,4.9382,4.9627,4.9765,4.9773,4.9911,5.0019,5.008,5.0207,5.0274,5.0419,5.0375,5.043,5.0534,5.0609,5.0739,5.0594,5.0776,5.0781,5.0739,5.0988,5.1009,5.1213,5.0913,5.0918,5.0922,0,4.9341,4.9468,4.9726,4.9858,4.9918,5.004,5.0185,5.0307,5.0429,5.0466,5.0568,5.0588,5.0752,5.0672,5.0899,5.0799,5.0877,5.0925,5.0934,5.0952,5.086,5.101,5.1279,5.1309,5.0969,5.0965,5.0962,0,4.9479,4.9715,4.9899,4.9964,5.0123,5.0209,5.0279,5.0397,5.0486,5.0614,5.0672,5.0817,5.0897,5.1009,5.1067,5.1004,5.1289,5.1215,5.1324,5.1322,5.1382,5.1377,5.1665,5.1435,5.1435,5.1434,5.1433,0,4.9712,4.9869,4.9963,5.0076,5.0252,5.0306,5.0479,5.0548,5.0652,5.0778,5.0795,5.0914,5.0984,5.1113,5.116,5.134,5.1376,5.141,5.142,5.1408,5.1403,5.1458,5.1445,5.1442,5.144,5.1439,5.1437,0,4.9896,4.9965,5.0166,5.0299,5.0337,5.046,5.0575,5.0685,5.0745,5.0905,5.0945,5.104,5.1193,5.1262,5.1451,5.1482,5.1686,5.1688,5.1644,5.1647,5.1751,5.174,5.2083,5.213,5.187,5.1873,5.1875,0,5.0039,5.016,5.0305,5.039,5.0463,5.0601,5.0691,5.0749,5.0843,5.0991,5.1083,5.1236,5.1361,5.1604,5.169,5.1834,5.1838,5.1948,5.186,5.1842,5.1837,5.1829,5.184,5.1964,5.1966,5.1968,5.197,0,5.0285,5.0313,5.0443,5.0585,5.0692,5.0807,5.0919,5.0988,5.1064,5.1168,5.1323,5.142,5.1612,5.1763,5.1912,5.1985,5.1991,5.1997,5.203,5.2017,5.1986,5.2002,5.1686,5.1989,5.1987,5.1986,5.1985,5.1984,5.0452,5.0559,5.0677,5.0821,5.0911,5.1015,5.1124,5.1197,5.1327,5.1486,5.1513,5.1678,5.1797,5.1998,5.2076,5.2206,5.2179,5.2227,5.2239,5.2249,5.2254,5.1966,5.2234,5.2233,5.2233,5.2232,5.2232,0,5.0698,5.0774,5.0905,5.1061,5.1173,5.1167,5.1291,5.1386,5.153,5.164,5.1762,5.1939,5.2085,5.2182,5.233,5.2415,5.2421,5.2452,5.2445,5.2462,5.227,5.2226,5.2444,5.2444,5.2444,5.2444,5.2444,5.2444,5.0838,5.1018,5.1059,5.1283,5.1359,5.1519,5.159,5.1686,5.1773,5.197,5.2091,5.2152,5.2257,5.2412,5.2546,5.2571,5.2623,5.2655,5.2678,5.2498,5.2475,5.2454,5.2413,5.2667,5.2667,5.2859,5.2861,5.2862]},{"header":{"parameterUnit":"m.s-1","parameterCategory":1,"la1":30.2991,"la2":30.254,"lo1":-89.0895,"lo2":-89.0444,"dy":0.0017,"dx":0.0017,"nx":28,"ny":28,"refTime":"2026-01-01T03:00:00:Z","depth":0,"parameterNumber":3,"parameterNumberName":"V-component_of_WINDS"},"data":[0,0,0,0,0,0,0,0,0,0,0,0,0,0,0,0,0,0,0,0,0,0,0,0,0,0,0,0,0,0,0,0,0,0,0,0,0,0,0,0,0,0,0,0,0,0,0,0,0,0,0,0,0,0,0,0,0,0,1.5171,1.5171,0,1.5174,1.5174,1.5174,1.5124,1.5123,1.5121,1.512,1.5125,1.5126,1.5128,0,0,0,0,0,0,0,0,0,0,0,0,0,1.5122,1.5123,1.5171,1.5171,1.5171,1.5174,1.5174,1.5174,1.5124,1.5123,1.5121,1.5119,1.5125,1.5126,1.5128,0,0,0,0,0,0,0,0,0,0,0,0,0,1.5136,1.5124,1.5171,1.5146,1.5144,1.5174,1.5174,1.5174,1.5125,1.5122,1.512,1.5118,1.5124,1.5126,1.5128,1.5183,0,0,1.5135,1.5136,0,0,0,0,0,0,0,0,1.5136,1.5138,1.515,1.5148,1.5146,1.5146,1.5159,1.5177,1.5125,1.5132,1.512,1.5117,1.5134,1.5135,1.514,1.5183,1.5183,1.5135,1.5136,1.5137,1.5138,0,0,0,0,0,0,0,1.5135,1.5138,1.5172,1.515,1.5148,1.5135,1.5135,1.5162,1.5145,1.5131,1.5128,1.5129,1.5132,1.5138,1.514,1.5183,1.5135,1.5137,1.5138,1.5139,1.5268,1.527,0,0,0,0,0,0,1.5137,1.5137,1.5172,1.5172,1.5135,1.5138,1.5138,1.5148,1.5144,1.5142,1.513,1.5126,1.5136,1.5138,1.514,1.5202,1.5137,1.5139,1.514,1.5266,1.5269,1.5271,0,0,0,0,0,0,1.5136,1.514,1.5172,1.5154,1.5157,1.5141,1.5154,1.515,1.5155,1.5143,1.514,1.514,1.5134,1.5137,1.5172,1.5202,1.514,1.5142,1.5263,1.5267,1.527,1.5328,0,0,0,0,0,0,1.5135,1.514,1.5161,1.5155,1.5158,1.5204,1.5155,1.5151,1.5159,1.5154,1.5151,1.5149,1.5133,1.5169,1.5174,1.5204,1.5144,1.5261,1.5265,1.5269,1.5323,1.5332,1.5341,0,0,0,0,0,1.5133,1.5178,1.5162,1.5167,1.5183,1.5206,1.5208,1.5188,1.5162,1.5182,1.5174,1.5149,1.5198,1.5173,1.5178,1.5209,1.5259,1.5264,1.5268,1.5319,1.5331,1.534,0,0,0,0,0,0,1.519,1.5177,1.5159,1.5203,1.5206,1.5197,1.5223,1.5201,1.5212,1.5206,1.5182,1.5181,1.522,1.5218,1.519,1.526,1.5223,1.523,1.526,1.5271,1.528,1.528,1.5145,0,0,0,0,0,1.5207,1.5226,1.5214,1.5254,1.5256,1.5239,1.5248,1.5232,1.5234,1.5235,1.523,1.5233,1.5249,1.526,1.5274,1.5322,1.532,1.5346,1.5355,1.5362,1.5368,1.5392,1.5402,1.5287,1.5287,1.5287,0,0,1.5244,1.5239,1.5253,1.5265,1.5265,1.5285,1.524,1.5264,1.5278,1.5239,1.5271,1.5267,1.5269,1.531,1.5328,1.531,1.5399,1.5368,1.5374,1.5376,1.5398,1.5409,1.5418,1.529,1.529,1.5289,0,0,1.532,1.5319,1.5351,1.5352,1.5352,1.534,1.5348,1.5342,1.5337,1.5369,1.5339,1.5356,1.5384,1.5386,1.5391,1.5466,1.5443,1.5471,1.5517,1.5541,1.555,1.5558,1.5584,1.5593,1.5476,1.5477,1.5477,0,1.5366,1.5395,1.5371,1.5396,1.5402,1.5365,1.5398,1.5399,1.5405,1.541,1.5388,1.5421,1.542,1.5461,1.5479,1.5484,1.5492,1.5471,1.555,1.5558,1.5565,1.5589,1.5599,1.548,1.548,1.5479,1.5479,0,1.545,1.547,1.5497,1.5501,1.5509,1.5538,1.5519,1.553,1.5513,1.5504,1.5535,1.5532,1.5544,1.5552,1.5537,1.5591,1.5579,1.5554,1.5517,1.558,1.5602,1.5612,1.5485,1.5484,1.5483,1.5482,0,0,1.5565,1.5553,1.5563,1.5564,1.556,1.5575,1.5602,1.5612,1.5622,1.5627,1.5648,1.5671,1.5648,1.5653,1.5637,1.5658,1.5716,1.5631,1.563,1.5646,1.5774,1.5793,1.5804,1.5701,1.5703,1.5704,1.5774,0,1.5638,1.5682,1.566,1.5707,1.5725,1.5689,1.5712,1.5712,1.5703,1.5717,1.5707,1.5724,1.5693,1.5695,1.5714,1.5705,1.5742,1.57,1.572,1.5721,1.5721,1.5816,1.5835,1.5902,1.5783,1.5784,1.5785,0,1.5731,1.5737,1.5785,1.5776,1.5783,1.5804,1.581,1.5824,1.5823,1.5815,1.582,1.5798,1.5823,1.5786,1.582,1.5792,1.5798,1.5795,1.5797,1.5798,1.5757,1.5819,1.5923,1.5932,1.5799,1.5798,1.5797,0,1.5808,1.5829,1.5859,1.5861,1.5852,1.5867,1.5864,1.5861,1.5868,1.5874,1.5878,1.5888,1.5893,1.5901,1.5882,1.5857,1.5918,1.588,1.5912,1.5913,1.5927,1.5926,1.6033,1.5932,1.5932,1.5932,1.5931,0,1.5893,1.5923,1.5894,1.5913,1.5945,1.592,1.5953,1.5946,1.5944,1.596,1.5931,1.5948,1.5922,1.5936,1.5921,1.5951,1.5954,1.5948,1.5944,1.595,1.5951,1.5955,1.5949,1.5934,1.5934,1.5933,1.5933,0,1.5985,1.5967,1.5997,1.5985,1.5983,1.6007,1.5997,1.6014,1.6002,1.6024,1.6028,1.601,1.6024,1.6006,1.602,1.601,1.605,1.6039,1.605,1.6047,1.608,1.6077,1.6192,1.6206,1.6097,1.6098,1.6099,0,1.604,1.6063,1.6052,1.606,1.6059,1.6073,1.608,1.6055,1.6063,1.6062,1.6079,1.6091,1.61,1.6125,1.6113,1.6123,1.6112,1.6151,1.6113,1.6119,1.6112,1.611,1.6112,1.6159,1.6161,1.6162,1.6163,0,1.614,1.6129,1.6139,1.6145,1.6153,1.6157,1.6159,1.6168,1.6142,1.6153,1.6167,1.6173,1.6186,1.6198,1.6204,1.6201,1.6178,1.6175,1.6182,1.619,1.6195,1.6191,1.6071,1.6172,1.6171,1.6171,1.617,1.617,1.6215,1.6232,1.6227,1.6238,1.6237,1.6239,1.6253,1.6243,1.6254,1.6261,1.6246,1.6264,1.6261,1.6266,1.6266,1.6279,1.6262,1.6274,1.6277,1.628,1.6285,1.6192,1.628,1.628,1.628,1.628,1.6279,0,1.6312,1.6306,1.6317,1.632,1.6329,1.6304,1.6305,1.6314,1.6329,1.6328,1.6336,1.6351,1.6362,1.6351,1.636,1.6372,1.6362,1.6376,1.6374,1.6374,1.63,1.6292,1.6384,1.6384,1.6384,1.6384,1.6384,1.6384,1.6364,1.6391,1.638,1.6406,1.64,1.6416,1.6418,1.6419,1.6418,1.6436,1.6444,1.6436,1.6431,1.6438,1.6447,1.6444,1.6448,1.6466,1.6458,1.6389,1.6379,1.6369,1.6362,1.6467,1.6467,1.6531,1.6531,1.6532]}]]